"startDT [UTC]","vpos","CH4 [ppm]","stdev(CH4) [ppm]","CO2 [ppm]","stdev(CO2) [ppm]","H2O [ppm]","stdev(H2O)","p_LGR [torr]","T_LGR [C]","mt1_LGR [us]","mt2_LGR [us]","T_ECpre [C]","T_EC1 [C]","T_EC2 [C]","p_inlet [hPa]","p_in [hPa]","p_out [hPa]","T_inlet [C]","RH_inlet [%]","dwpt_inlet [C]","T_vent [C]","RH_vent [%]","dwpt_vent [C]","flow_vent [l min-1]","flow_inlet [l min-1]","dwpt_sample [C]","T_room [C]"
2012-05-27 00:00:00,0.0,1.8954,0.0007,404.04,0.18,12.4,16.3,138.06,30.64,24.65,36.48,0.98,-26.42,-0.22,-59,544,-930,25.7,14.8,-3.1,25.6,1.4,-31.2,5.73,2.37,-28.4,30.0
2012-05-27 00:01:00,0.0,1.8952,0.0007,404.03,0.20,16.4,22.1,138.06,30.64,24.65,36.48,1.03,-26.42,-2.01,-59,544,-930,25.7,15.1,-2.8,25.7,1.4,-31.2,5.73,2.37,-28.4,30.0
2012-05-27 00:02:00,0.0,1.8958,0.0007,404.02,0.21,9.7,13.1,138.06,30.64,24.64,36.48,1.09,-26.43,-3.71,-59,544,-930,25.7,15.3,-2.6,25.6,1.4,-31.3,5.73,2.37,-28.4,30.0
2012-05-27 00:03:00,0.0,1.8954,0.0009,404.01,0.23,12.0,18.3,138.06,30.63,24.65,36.49,1.00,-26.43,-5.29,-60,544,-930,25.7,15.1,-2.8,25.7,1.4,-31.2,5.73,2.37,-28.4,29.9
2012-05-27 00:04:00,0.0,1.8952,0.0009,403.97,0.16,10.3,16.8,138.06,30.63,24.65,36.48,0.98,-26.43,-6.70,-60,544,-930,25.7,15.1,-2.8,25.7,1.4,-31.2,5.73,2.37,-28.4,29.9
2012-05-27 00:05:00,0.0,1.8953,0.0008,404.05,0.21,13.6,18.8,138.06,30.63,24.65,36.48,1.06,-26.44,-8.06,-59,544,-930,25.7,14.9,-3.0,25.7,1.4,-31.2,5.73,2.37,-28.3,29.9
2012-05-27 00:06:00,0.0,1.8954,0.0009,404.04,0.18,19.1,21.9,138.06,30.63,24.65,36.48,1.07,-26.44,-9.22,-59,544,-930,25.7,15.1,-2.8,25.6,1.4,-31.2,5.73,2.37,-28.4,29.9
2012-05-27 00:07:00,0.0,1.8949,0.0007,404.01,0.20,9.1,14.4,138.06,30.63,24.65,36.48,0.99,-26.45,-10.43,-59,544,-930,25.7,15.2,-2.7,25.6,1.4,-31.3,5.73,2.37,-28.3,29.9
2012-05-27 00:08:00,0.0,1.8952,0.0008,404.08,0.24,13.7,18.7,138.06,30.62,24.65,36.48,0.98,-26.45,-11.59,-59,544,-930,25.7,14.8,-3.1,25.7,1.4,-31.2,5.73,2.37,-28.4,29.9
2012-05-27 00:09:00,0.0,1.8950,0.0009,404.09,0.20,11.9,16.7,138.06,30.62,24.65,36.48,1.04,-26.46,-12.65,-59,544,-930,25.7,15.1,-2.9,25.7,1.4,-31.2,5.73,2.37,-28.4,29.9
2012-05-27 00:10:00,0.0,1.8954,0.0009,404.07,0.17,14.1,20.3,138.06,30.62,24.65,36.47,1.07,-26.47,-13.68,-60,544,-930,25.7,15.1,-2.8,25.7,1.4,-31.2,5.73,2.37,-28.3,29.9
2012-05-27 00:11:00,0.0,1.8951,0.0008,403.99,0.22,20.4,25.2,138.06,30.61,24.65,36.49,0.99,-26.48,-14.64,-60,544,-930,25.7,14.8,-3.1,25.7,1.4,-31.2,5.73,2.37,-28.4,29.9
2012-05-27 00:12:00,0.0,1.8955,0.0008,404.10,0.20,13.4,18.1,138.06,30.61,24.65,36.48,0.97,-26.49,-15.58,-59,544,-930,25.7,15.1,-2.8,25.7,1.4,-31.2,5.73,2.37,-28.3,29.9
2012-05-27 00:13:00,0.0,1.8958,0.0010,404.03,0.21,13.6,21.0,138.06,30.61,24.65,36.48,1.04,-26.50,-16.45,-60,544,-930,25.7,14.9,-3.0,25.7,1.4,-31.2,5.73,2.37,-28.3,29.9
2012-05-27 00:14:00,0.0,1.8956,0.0008,404.03,0.21,14.9,22.8,138.06,30.61,24.65,36.48,1.08,-26.52,-17.27,-60,544,-930,25.7,14.5,-3.3,25.6,1.4,-31.3,5.73,2.37,-28.4,29.8
2012-05-27 00:15:00,0.0,1.8960,0.0009,404.09,0.25,12.3,18.7,138.06,30.60,24.64,36.48,0.99,-26.53,-17.98,-60,544,-930,25.7,14.9,-3.0,25.6,1.4,-31.2,5.73,2.37,-28.3,29.9
2012-05-27 00:16:00,0.0,1.8961,0.0008,404.01,0.22,10.6,17.0,138.06,30.60,24.65,36.48,0.97,-26.55,-18.65,-60,544,-930,25.7,15.7,-2.3,25.7,1.4,-31.2,5.73,2.37,-28.4,29.9
2012-05-27 00:17:00,0.0,1.8958,0.0008,403.94,0.19,13.1,19.6,138.06,30.60,24.65,36.49,1.02,-26.56,-19.35,-60,544,-930,25.7,14.9,-3.0,25.7,1.4,-31.3,5.73,2.37,-28.4,29.8
2012-05-27 00:18:00,0.0,1.8955,0.0009,403.99,0.21,11.5,18.0,138.06,30.59,24.65,36.48,1.06,-26.57,-20.01,-60,544,-930,25.7,14.6,-3.3,25.6,1.4,-31.2,5.73,2.37,-28.4,29.8
2012-05-27 00:19:00,0.0,1.8955,0.0010,403.97,0.20,9.9,15.6,138.06,30.59,24.65,36.48,1.00,-26.59,-20.64,-60,544,-930,25.7,14.6,-3.3,25.6,1.4,-31.2,5.73,2.37,-28.4,29.8
2012-05-27 00:20:00,0.0,1.8956,0.0009,404.08,0.18,13.1,20.0,138.06,30.59,24.65,36.47,0.96,-26.60,-21.23,-60,544,-930,25.7,15.0,-2.9,25.6,1.4,-31.2,5.73,2.37,-28.4,29.8
2012-05-27 00:21:00,0.0,1.8958,0.0008,403.95,0.21,16.6,20.6,138.06,30.59,24.65,36.48,1.00,-26.62,-21.78,-60,544,-930,25.7,15.4,-2.5,25.6,1.4,-31.3,5.73,2.37,-28.4,29.9
2012-05-27 00:22:00,0.0,1.8959,0.0007,404.08,0.19,10.7,15.5,138.06,30.59,24.64,36.47,1.06,-26.63,-22.30,-60,544,-930,25.7,14.8,-3.1,25.6,1.4,-31.3,5.73,2.37,-28.4,29.9
2012-05-27 00:23:00,0.0,1.8958,0.0008,404.02,0.23,12.3,18.2,138.06,30.59,24.65,36.48,1.04,-26.64,-22.77,-60,544,-930,25.6,14.7,-3.2,25.6,1.3,-31.4,5.73,2.37,-28.4,29.8
2012-05-27 00:24:00,0.0,1.8957,0.0008,403.98,0.19,8.9,16.8,138.06,30.59,24.65,36.48,0.96,-26.66,-23.22,-60,544,-930,25.6,14.7,-3.2,25.6,1.3,-31.5,5.73,2.38,-28.4,29.8
2012-05-27 00:25:00,0.0,1.8953,0.0010,403.97,0.17,10.9,18.7,138.06,30.58,24.65,36.48,0.96,-26.67,-23.65,-60,544,-930,25.6,14.6,-3.3,25.7,1.3,-31.4,5.73,2.37,-28.4,29.8
2012-05-27 00:26:00,0.0,1.8957,0.0010,403.95,0.17,15.0,18.8,138.06,30.58,24.65,36.48,1.01,-26.68,-24.05,-60,544,-930,25.7,14.5,-3.3,25.6,1.3,-31.5,5.73,2.37,-28.4,29.9
2012-05-27 00:27:00,0.0,1.8957,0.0008,404.00,0.18,14.1,18.2,138.06,30.58,24.64,36.48,1.05,-26.70,-24.42,-60,544,-930,25.7,14.6,-3.3,25.7,1.3,-31.4,5.73,2.37,-28.4,29.9
2012-05-27 00:28:00,0.0,1.8958,0.0008,403.96,0.22,20.6,24.0,138.06,30.57,24.65,36.48,1.03,-26.71,-24.78,-60,544,-930,25.7,14.8,-3.1,25.6,1.3,-31.5,5.73,2.37,-28.4,29.9
2012-05-27 00:29:00,0.0,1.8956,0.0009,403.96,0.23,14.3,19.2,138.06,30.57,24.65,36.48,0.97,-26.72,-25.11,-60,544,-930,25.7,14.6,-3.3,25.6,1.3,-31.4,5.73,2.37,-28.4,29.9
2012-05-27 00:30:00,0.0,1.8954,0.0008,404.01,0.18,9.7,15.5,138.06,30.57,24.65,36.48,0.96,-26.73,-25.42,-60,544,-930,25.7,14.5,-3.3,25.6,1.3,-31.5,5.73,2.37,-28.4,29.9
2012-05-27 00:31:00,0.0,1.8955,0.0009,404.01,0.21,9.3,15.0,138.06,30.57,24.65,36.48,1.00,-26.74,-25.72,-60,544,-930,25.6,14.5,-3.4,25.6,1.3,-31.5,5.73,2.37,-28.4,29.9
2012-05-27 00:32:00,0.0,1.8956,0.0009,403.96,0.22,11.9,16.0,138.06,30.56,24.65,36.48,1.03,-26.76,-25.99,-60,544,-930,25.7,15.0,-2.9,25.6,1.3,-31.5,5.73,2.37,-28.4,29.9
2012-05-27 00:33:00,0.0,1.8957,0.0008,403.95,0.18,14.2,20.0,138.06,30.56,24.65,36.48,1.05,-26.77,-26.26,-59,544,-930,25.6,14.7,-3.2,25.6,1.3,-31.5,5.73,2.37,-28.4,29.9
2012-05-27 00:34:00,0.0,1.8957,0.0009,403.99,0.22,15.8,22.7,138.06,30.56,24.65,36.48,0.97,-26.78,-26.50,-60,544,-930,25.6,15.1,-2.8,25.6,1.3,-31.4,5.73,2.37,-28.4,29.9
2012-05-27 00:35:00,0.0,1.8955,0.0007,403.99,0.15,13.0,20.1,138.06,30.56,24.65,36.48,0.95,-26.79,-26.74,-60,544,-930,25.6,14.7,-3.2,25.6,1.3,-31.5,5.73,2.37,-28.4,29.9
2012-05-27 00:36:00,0.0,1.8957,0.0010,403.91,0.22,13.5,16.3,138.06,30.56,24.65,36.49,0.97,-26.80,-26.66,-60,544,-930,25.6,14.8,-3.1,25.6,1.3,-31.5,5.73,2.37,-28.4,29.9
2012-05-27 00:37:00,0.0,1.8955,0.0009,403.93,0.19,15.4,20.5,138.06,30.55,24.65,36.48,1.02,-26.80,-26.56,-60,544,-930,25.6,14.7,-3.2,25.6,1.3,-31.4,5.73,2.37,-28.4,29.9
2012-05-27 00:38:00,0.0,1.8954,0.0008,403.97,0.18,12.1,17.8,138.06,30.55,24.65,36.48,1.06,-26.81,-26.73,-60,544,-930,25.6,14.7,-3.2,25.6,1.3,-31.5,5.73,2.37,-28.4,29.9
2012-05-27 00:39:00,0.0,1.8958,0.0008,403.90,0.18,11.2,20.0,138.06,30.55,24.65,36.48,1.01,-26.82,-26.75,-60,544,-930,25.6,14.8,-3.1,25.6,1.3,-31.5,5.73,2.37,-28.4,29.9
2012-05-27 00:40:00,0.0,1.8954,0.0009,403.91,0.19,16.2,21.9,138.06,30.55,24.65,36.48,1.01,-26.83,-26.57,-60,544,-930,25.6,14.3,-3.6,25.6,1.3,-31.5,5.73,2.37,-28.4,29.8
2012-05-27 00:41:00,0.0,1.8956,0.0008,403.95,0.21,13.3,17.9,138.06,30.54,24.65,36.48,0.96,-26.85,-26.71,-60,544,-930,25.6,14.2,-3.7,25.6,1.3,-31.5,5.73,2.37,-28.4,29.8
2012-05-27 00:42:00,0.0,1.8958,0.0010,403.97,0.22,9.8,15.6,138.06,30.54,24.64,36.48,0.91,-26.85,-26.84,-60,544,-930,25.6,14.3,-3.6,25.6,1.3,-31.6,5.73,2.37,-28.4,29.8
2012-05-27 00:43:00,0.0,1.8952,0.0007,403.97,0.24,9.9,14.4,138.06,30.54,24.65,36.48,0.98,-26.86,-26.59,-60,544,-930,25.6,14.3,-3.6,25.6,1.3,-31.7,5.73,2.37,-28.4,29.8
2012-05-27 00:44:00,0.0,1.8956,0.0009,403.93,0.20,11.0,14.4,138.06,30.54,24.65,36.48,1.01,-26.87,-26.70,-59,544,-930,25.6,14.4,-3.5,25.6,1.3,-31.7,5.73,2.37,-28.5,29.8
2012-05-27 00:45:00,0.0,1.8955,0.0008,403.99,0.18,10.7,15.9,138.06,30.54,24.65,36.48,1.04,-26.88,-26.88,-59,544,-930,25.6,14.4,-3.5,25.6,1.3,-31.7,5.73,2.37,-28.5,29.8
2012-05-27 00:46:00,0.0,1.8950,0.0008,403.96,0.18,13.4,17.3,138.07,30.54,24.65,36.48,0.99,-26.88,-26.66,-59,544,-930,25.6,14.2,-3.7,25.6,1.3,-31.7,5.73,2.37,-28.4,29.9
2012-05-27 00:47:00,0.0,1.8954,0.0009,403.98,0.22,13.7,20.3,138.06,30.54,24.65,36.48,1.00,-26.90,-26.68,-60,544,-930,25.6,14.3,-3.6,25.6,1.3,-31.7,5.73,2.37,-28.4,29.9
2012-05-27 00:48:00,0.0,1.8954,0.0009,403.96,0.19,10.2,17.3,138.06,30.53,24.65,36.48,0.95,-26.90,-26.86,-60,544,-930,25.6,14.5,-3.4,25.6,1.3,-31.7,5.73,2.38,-28.5,29.9
2012-05-27 00:49:00,0.0,1.8954,0.0011,403.97,0.19,14.9,19.2,138.07,30.53,24.65,36.47,0.99,-26.91,-26.76,-60,544,-930,25.6,14.3,-3.6,25.6,1.3,-31.7,5.73,2.37,-28.4,29.8
2012-05-27 00:50:00,0.0,1.8952,0.0008,403.97,0.19,10.7,16.7,138.06,30.53,24.65,36.48,0.89,-26.69,-26.68,-59,544,-930,25.6,14.2,-3.7,25.6,1.3,-31.5,5.73,2.37,-28.4,29.8
2012-05-27 00:51:00,0.0,1.8957,0.0010,403.92,0.19,13.8,18.3,138.06,30.53,24.65,36.48,0.95,-25.24,-26.82,-59,544,-930,25.6,15.2,-2.8,25.6,1.4,-30.9,5.73,2.38,-28.5,29.9
2012-05-27 00:52:00,0.0,1.8959,0.0010,403.91,0.21,15.3,21.7,138.06,30.53,24.65,36.48,0.96,-23.32,-26.96,-60,544,-930,25.6,15.5,-2.5,25.6,1.5,-30.0,5.73,2.37,-28.5,29.8
2012-05-27 00:53:00,0.0,1.8955,0.0007,403.86,0.16,9.6,17.7,138.06,30.53,24.65,36.48,0.87,-21.38,-27.06,-60,544,-930,25.6,14.5,-3.4,25.6,1.6,-29.4,5.73,2.37,-28.5,29.8
2012-05-27 00:54:00,0.0,1.8956,0.0008,403.91,0.21,7.3,13.1,138.06,30.52,24.65,36.48,0.82,-19.51,-27.13,-60,544,-930,25.6,14.5,-3.4,25.6,1.7,-29.1,5.73,2.37,-28.5,29.8
2012-05-27 00:55:00,0.0,1.8955,0.0009,403.97,0.20,6.3,14.1,138.06,30.52,24.65,36.48,0.88,-17.72,-27.19,-60,544,-930,25.6,14.2,-3.7,25.6,1.7,-29.1,5.73,2.37,-28.5,29.8
2012-05-27 00:56:00,0.0,1.8958,0.0008,403.89,0.22,9.3,13.4,138.06,30.52,24.65,36.48,0.91,-16.01,-27.23,-59,544,-930,25.6,14.5,-3.4,25.6,1.7,-29.1,5.73,2.37,-28.5,29.7
2012-05-27 00:57:00,0.0,1.8959,0.0008,403.93,0.19,7.5,16.3,138.06,30.52,24.65,36.48,0.94,-14.40,-27.26,-60,544,-930,25.6,14.7,-3.2,25.6,1.6,-29.4,5.73,2.37,-28.5,29.8
2012-05-27 00:58:00,0.0,1.8958,0.0008,403.84,0.24,8.8,13.9,138.06,30.52,24.64,36.48,0.96,-12.87,-27.29,-59,544,-929,25.6,14.2,-3.7,25.6,1.6,-29.5,5.73,2.37,-28.5,29.8
2012-05-27 00:59:00,0.0,1.8957,0.0008,403.89,0.14,10.6,16.6,138.06,30.52,24.65,36.48,0.93,-11.41,-27.32,-59,544,-930,25.6,14.5,-3.4,25.6,1.6,-29.8,5.73,2.38,-28.5,29.8
2012-05-27 01:00:00,0.0,1.8957,0.0009,403.91,0.21,12.7,17.0,138.06,30.51,24.65,36.48,0.85,-10.03,-27.33,-60,544,-930,25.6,14.4,-3.5,25.6,1.5,-30.0,5.73,2.37,-28.5,29.8
2012-05-27 01:01:00,0.0,1.8957,0.0009,403.80,0.21,6.0,14.1,138.06,30.51,24.65,36.49,0.83,-8.72,-27.36,-60,544,-929,25.6,14.2,-3.7,25.6,1.5,-30.1,5.73,2.37,-28.5,29.8
2012-05-27 01:02:00,0.0,1.8956,0.0009,403.87,0.23,9.9,16.1,138.06,30.51,24.65,36.48,0.91,-7.47,-27.37,-60,544,-929,25.6,14.2,-3.6,25.6,1.5,-30.2,5.73,2.37,-28.5,29.8
2012-05-27 01:03:00,0.0,1.8957,0.0009,403.91,0.22,12.8,17.9,138.06,30.51,24.65,36.48,0.92,-6.28,-27.39,-59,544,-930,25.6,14.5,-3.4,25.6,1.5,-30.3,5.73,2.37,-28.5,29.8
2012-05-27 01:04:00,0.0,1.8956,0.0009,403.89,0.20,7.0,13.0,138.06,30.51,24.65,36.48,0.93,-5.14,-27.40,-59,544,-930,25.6,14.6,-3.3,25.6,1.5,-30.4,5.73,2.37,-28.5,29.8
2012-05-27 01:05:00,0.0,1.8957,0.0010,403.87,0.23,10.4,16.2,138.06,30.51,24.65,36.48,0.95,-4.07,-27.42,-60,544,-930,25.6,14.3,-3.6,25.6,1.5,-30.5,5.73,2.37,-28.5,29.7
2012-05-27 01:06:00,0.0,1.8955,0.0008,403.81,0.18,11.0,19.2,138.06,30.51,24.65,36.48,0.96,-3.05,-27.42,-59,544,-930,25.6,14.0,-3.9,25.6,1.4,-30.6,5.73,2.37,-28.5,29.8
2012-05-27 01:07:00,0.0,1.8952,0.0008,403.89,0.19,9.2,16.5,138.06,30.50,24.65,36.47,0.94,-2.07,-27.43,-60,544,-930,25.6,14.1,-3.8,25.6,1.4,-30.7,5.73,2.37,-28.5,29.8
2012-05-27 01:08:00,0.0,1.8960,0.0009,403.83,0.20,11.7,18.5,138.06,30.50,24.65,36.48,0.89,-1.15,-27.43,-59,544,-930,25.6,13.7,-4.2,25.6,1.4,-30.8,5.73,2.37,-28.4,29.8
2012-05-27 01:09:00,0.0,1.8958,0.0008,403.86,0.21,10.5,17.1,138.06,30.50,24.65,36.47,0.88,-0.27,-27.44,-59,544,-930,25.6,13.5,-4.3,25.6,1.4,-30.9,5.73,2.37,-28.4,29.8
2012-05-27 01:10:00,0.0,1.8962,0.0008,403.82,0.20,11.9,15.3,138.06,30.50,24.65,36.48,0.88,0.57,-27.44,-59,544,-930,25.6,14.8,-3.1,25.6,1.4,-30.9,5.73,2.37,-28.5,29.8
2012-05-27 01:11:00,0.0,1.8960,0.0009,403.86,0.19,8.7,16.4,138.06,30.50,24.65,36.48,0.91,1.37,-27.45,-59,544,-930,25.6,14.1,-3.8,25.6,1.4,-31.1,5.73,2.37,-28.5,29.8
2012-05-27 01:12:00,0.0,1.8959,0.0007,403.81,0.19,12.9,19.2,138.06,30.50,24.65,36.48,0.91,2.11,-27.45,-59,544,-930,25.6,14.0,-3.9,25.6,1.4,-31.0,5.73,2.37,-28.5,29.8
2012-05-27 01:13:00,0.0,1.8959,0.0010,403.74,0.18,12.2,18.3,138.06,30.50,24.65,36.48,0.93,2.78,-27.45,-59,544,-930,25.6,13.9,-4.0,25.6,1.4,-31.3,5.73,2.37,-28.4,29.8
2012-05-27 01:14:00,0.0,1.8956,0.0009,403.82,0.20,10.6,18.1,138.06,30.50,24.65,36.48,0.94,3.22,-27.44,-59,544,-930,25.6,13.3,-4.6,25.6,1.4,-31.3,5.73,2.38,-28.4,29.8
2012-05-27 01:15:00,0.0,1.8957,0.0008,403.83,0.19,9.9,15.0,138.06,30.50,24.65,36.48,0.95,3.69,-27.45,-59,544,-930,25.6,13.6,-4.3,25.6,1.4,-31.2,5.73,2.38,-28.4,29.8
2012-05-27 01:16:00,0.0,1.8958,0.0009,403.77,0.18,11.8,19.2,138.06,30.50,24.65,36.48,0.95,4.16,-27.44,-59,544,-930,25.6,13.9,-4.0,25.6,1.4,-31.3,5.73,2.37,-28.4,29.8
2012-05-27 01:17:00,0.0,1.8960,0.0008,403.79,0.22,11.6,20.9,138.06,30.49,24.65,36.48,0.94,4.71,-27.44,-59,544,-930,25.6,13.7,-4.2,25.6,1.3,-31.5,5.73,2.36,-28.4,29.8
2012-05-27 01:18:00,0.0,1.8958,0.0009,403.76,0.22,12.7,18.8,138.06,30.49,24.65,36.48,0.93,5.27,-27.44,-59,544,-930,25.6,13.7,-4.2,25.6,1.3,-31.5,5.73,2.37,-28.4,29.8
2012-05-27 01:19:00,0.0,1.8962,0.0008,403.79,0.17,11.5,17.4,138.06,30.49,24.65,36.48,0.92,5.80,-27.43,-59,544,-930,25.6,13.5,-4.3,25.6,1.3,-31.5,5.73,2.37,-28.4,29.8
2012-05-27 01:20:00,0.0,1.8958,0.0010,403.76,0.18,11.8,19.0,138.06,30.49,24.65,36.48,0.89,6.31,-27.43,-60,544,-930,25.6,13.2,-4.7,25.6,1.3,-31.4,5.73,2.36,-28.4,29.8
2012-05-27 01:21:00,0.0,1.8961,0.0009,403.87,0.18,13.9,18.6,138.06,30.49,24.65,36.47,0.91,6.79,-27.43,-59,544,-930,25.6,13.6,-4.3,25.6,1.3,-31.5,5.73,2.37,-28.4,29.8
2012-05-27 01:22:00,0.0,1.8960,0.0009,403.73,0.24,14.2,17.9,138.06,30.49,24.65,36.48,0.88,7.25,-27.42,-60,544,-930,25.6,13.3,-4.6,25.6,1.3,-31.5,5.73,2.37,-28.4,29.8
2012-05-27 01:23:00,0.0,1.8956,0.0008,403.70,0.19,9.2,18.3,138.06,30.48,24.65,36.48,0.91,7.69,-27.42,-60,544,-930,25.6,12.6,-5.2,25.6,1.3,-31.7,5.73,2.37,-28.4,29.8
2012-05-27 01:24:00,0.0,1.8960,0.0009,403.68,0.20,10.7,16.7,138.06,30.48,24.64,36.48,0.92,8.12,-27.42,-60,544,-930,25.6,12.4,-5.4,25.6,1.3,-31.7,5.73,2.37,-28.4,29.8
2012-05-27 01:25:00,0.0,1.8957,0.0008,403.70,0.20,12.1,16.7,138.06,30.48,24.65,36.48,0.93,8.53,-27.42,-60,544,-930,25.6,12.3,-5.6,25.6,1.3,-31.7,5.73,2.37,-28.4,29.7
2012-05-27 01:26:00,0.0,1.8956,0.0009,403.73,0.23,14.0,20.0,138.06,30.48,24.65,36.48,0.94,8.92,-27.42,-59,544,-930,25.6,12.4,-5.5,25.6,1.3,-31.7,5.73,2.37,-28.4,29.8
2012-05-27 01:27:00,0.0,1.8960,0.0009,403.64,0.25,9.0,15.8,138.06,30.48,24.64,36.48,0.94,9.31,-27.41,-59,544,-930,25.6,12.3,-5.6,25.6,1.3,-31.9,5.73,2.37,-28.4,29.8
2012-05-27 01:28:00,0.0,1.8959,0.0009,403.77,0.17,8.3,13.5,138.06,30.48,24.65,36.47,0.95,9.68,-27.41,-60,544,-930,25.6,12.8,-5.0,25.6,1.3,-31.9,5.73,2.38,-28.4,29.8
2012-05-27 01:29:00,0.0,1.8959,0.0008,403.66,0.23,15.6,19.5,138.06,30.48,24.64,36.48,0.95,10.04,-27.41,-59,544,-930,25.6,12.3,-5.7,25.6,1.3,-32.0,5.73,2.37,-28.4,29.8
2012-05-27 01:30:00,0.0,1.8956,0.0009,403.56,0.21,14.4,19.0,138.06,30.48,24.65,36.48,0.95,10.39,-27.40,-59,544,-930,25.6,11.8,-6.1,25.6,1.3,-31.9,5.73,2.37,-28.4,29.8
2012-05-27 01:31:00,0.0,1.8959,0.0007,403.71,0.20,12.0,18.0,138.06,30.48,24.65,36.47,0.93,10.73,-27.40,-60,544,-930,25.6,11.9,-6.0,25.6,1.3,-31.9,5.73,2.37,-28.4,29.8
2012-05-27 01:32:00,0.0,1.8955,0.0009,403.63,0.17,8.2,16.8,138.06,30.48,24.65,36.48,0.92,11.04,-27.40,-59,544,-930,25.6,11.9,-6.0,25.6,1.3,-31.9,5.73,2.37,-28.4,29.8
2012-05-27 01:33:00,0.0,1.8961,0.0009,403.63,0.19,14.7,26.1,138.06,30.48,24.64,36.48,0.90,11.35,-27.40,-60,544,-930,25.6,12.7,-5.2,25.6,1.3,-32.0,5.73,2.37,-28.4,29.8
2012-05-27 01:34:00,0.0,1.8953,0.0010,403.70,0.17,13.0,18.7,138.06,30.48,24.65,36.48,0.89,11.65,-27.40,-60,544,-930,25.6,13.6,-4.3,25.6,1.3,-31.9,5.73,2.37,-28.4,29.8
2012-05-27 01:35:00,0.0,1.8961,0.0012,403.77,0.20,10.5,18.0,138.06,30.48,24.65,36.47,0.93,11.93,-27.39,-59,544,-930,25.6,13.5,-4.4,25.6,1.3,-31.9,5.73,2.37,-28.4,29.8
2012-05-27 01:36:00,0.0,1.8961,0.0009,403.78,0.18,6.8,13.2,138.06,30.47,24.65,36.47,0.90,12.21,-27.39,-59,544,-930,25.6,13.5,-4.4,25.6,1.3,-31.9,5.73,2.37,-28.4,29.7
2012-05-27 01:37:00,0.0,1.8958,0.0009,403.77,0.19,10.7,15.7,138.06,30.47,24.65,36.48,0.90,12.47,-27.38,-59,544,-930,25.6,13.4,-4.5,25.6,1.3,-32.0,5.73,2.37,-28.4,29.8
2012-05-27 01:38:00,0.0,1.8960,0.0006,403.73,0.20,14.1,20.4,138.06,30.47,24.65,36.48,0.93,12.73,-27.37,-59,544,-930,25.6,13.7,-4.2,25.6,1.3,-31.9,5.73,2.37,-28.4,29.8
2012-05-27 01:39:00,0.0,1.8965,0.0008,403.74,0.18,10.1,14.2,138.06,30.47,24.65,36.48,0.94,12.96,-27.37,-59,544,-930,25.6,13.7,-4.2,25.6,1.3,-31.9,5.73,2.37,-28.4,29.8
2012-05-27 01:40:00,0.0,1.8960,0.0008,403.66,0.16,9.9,21.0,138.06,30.47,24.65,36.48,0.92,13.19,-27.36,-59,544,-930,25.6,14.2,-3.7,25.6,1.3,-31.9,5.73,2.37,-28.4,29.7
2012-05-27 01:41:00,0.0,1.8963,0.0008,403.74,0.19,10.7,16.4,138.06,30.47,24.65,36.47,0.94,13.42,-27.36,-59,544,-930,25.6,13.4,-4.4,25.6,1.3,-31.9,5.73,2.37,-28.4,29.8
2012-05-27 01:42:00,0.0,1.8956,0.0010,403.68,0.17,12.9,19.4,138.06,30.47,24.65,36.48,0.94,13.63,-27.36,-59,544,-930,25.6,12.7,-5.2,25.6,1.3,-31.9,5.73,2.37,-28.4,29.8
2012-05-27 01:43:00,0.0,1.8961,0.0008,403.69,0.22,9.6,16.1,138.06,30.47,24.65,36.48,0.95,13.84,-27.35,-59,544,-930,25.6,13.0,-4.9,25.6,1.3,-32.0,5.73,2.37,-28.4,29.8
2012-05-27 01:44:00,0.0,1.8962,0.0009,403.59,0.21,10.5,16.0,138.06,30.47,24.65,36.49,0.94,14.03,-27.35,-59,544,-930,25.6,13.5,-4.3,25.6,1.3,-31.9,5.73,2.38,-28.4,29.8
2012-05-27 01:45:00,0.0,1.8960,0.0008,403.70,0.21,12.9,18.2,138.06,30.47,24.64,36.47,0.95,14.21,-27.35,-59,544,-930,25.6,12.5,-5.4,25.6,1.3,-32.0,5.73,2.37,-28.4,29.8
2012-05-27 01:46:00,0.0,1.8959,0.0008,403.67,0.22,7.2,12.8,138.06,30.47,24.65,36.48,0.95,14.39,-27.34,-59,544,-930,25.6,12.8,-5.1,25.6,1.3,-31.9,5.73,2.37,-28.4,29.8
2012-05-27 01:47:00,0.0,1.8965,0.0008,403.69,0.22,9.8,15.7,138.06,30.47,24.64,36.48,0.94,14.56,-27.33,-59,544,-930,25.6,13.3,-4.6,25.6,1.3,-31.9,5.73,2.36,-28.5,29.8
2012-05-27 01:48:00,0.0,1.8962,0.0010,403.65,0.18,14.9,20.7,138.06,30.47,24.65,36.48,0.94,14.72,-27.33,-59,544,-930,25.6,13.2,-4.6,25.6,1.3,-32.0,5.73,2.37,-28.4,29.8
2012-05-27 01:49:00,0.0,1.8963,0.0010,403.67,0.20,15.3,22.0,138.06,30.46,24.65,36.47,0.93,14.88,-27.33,-59,544,-930,25.6,12.5,-5.4,25.6,1.3,-31.9,5.73,2.36,-28.5,29.8
2012-05-27 01:50:00,0.0,1.8958,0.0009,403.64,0.22,14.1,19.6,138.06,30.46,24.65,36.48,0.90,15.03,-27.32,-59,544,-930,25.6,12.7,-5.2,25.6,1.3,-31.9,5.73,2.36,-28.5,29.8
2012-05-27 01:51:00,0.0,1.8960,0.0013,403.68,0.18,10.3,15.8,138.06,30.46,24.65,36.48,0.90,15.17,-27.32,-59,544,-930,25.6,12.9,-5.0,25.6,1.3,-31.9,5.73,2.37,-28.5,29.8
2012-05-27 01:52:00,0.0,1.8959,0.0012,403.68,0.19,12.6,18.4,138.06,30.46,24.65,36.48,0.91,15.30,-27.32,-59,544,-930,25.6,12.6,-5.3,25.6,1.3,-31.9,5.73,2.36,-28.5,29.8
2012-05-27 01:53:00,0.0,1.8962,0.0007,403.65,0.20,7.5,13.9,138.06,30.46,24.64,36.48,0.92,15.43,-27.31,-59,544,-930,25.6,12.5,-5.4,25.6,1.3,-31.9,5.73,2.37,-28.5,29.8
2012-05-27 01:54:00,0.0,1.8960,0.0009,403.70,0.22,12.4,19.5,138.06,30.46,24.65,36.47,0.91,15.56,-27.31,-59,544,-930,25.6,12.9,-4.9,25.6,1.3,-31.9,5.73,2.37,-28.5,29.8
2012-05-27 01:55:00,0.0,1.8964,0.0010,403.71,0.21,13.2,18.8,138.06,30.46,24.65,36.47,0.94,15.68,-27.31,-59,544,-930,25.6,13.0,-4.9,25.6,1.3,-31.9,5.73,2.37,-28.5,29.8
2012-05-27 01:56:00,0.0,1.8958,0.0010,403.66,0.20,10.5,18.7,138.06,30.46,24.65,36.48,0.93,15.79,-27.30,-59,544,-930,25.6,11.8,-6.1,25.6,1.3,-31.9,5.73,2.37,-28.5,29.8
2012-05-27 01:57:00,0.0,1.8956,0.0009,403.71,0.20,14.8,19.7,138.06,30.46,24.65,36.47,0.91,15.90,-27.30,-59,544,-930,25.6,12.1,-5.8,25.6,1.3,-31.9,5.73,2.37,-28.5,29.8
2012-05-27 01:58:00,0.0,1.8959,0.0009,403.62,0.20,11.7,20.1,138.06,30.46,24.65,36.47,0.94,16.01,-27.30,-59,544,-930,25.6,12.2,-5.7,25.6,1.3,-31.9,5.73,2.37,-28.5,29.8
2012-05-27 01:59:00,0.0,1.8959,0.0008,403.69,0.20,12.4,21.0,138.06,30.46,24.65,36.48,0.93,16.10,-27.30,-60,544,-930,25.6,11.7,-6.3,25.6,1.3,-31.9,5.73,2.37,-28.5,29.8
2012-05-27 02:00:00,0.0,1.8961,0.0009,403.59,0.19,7.3,13.9,138.06,30.46,24.65,36.48,0.94,16.20,-27.30,-59,544,-930,25.6,12.3,-5.6,25.6,1.3,-31.9,5.73,2.37,-28.5,29.9
2012-05-27 02:01:00,0.0,1.8958,0.0009,403.59,0.20,12.4,17.5,138.06,30.46,24.65,36.48,0.95,16.29,-27.30,-59,544,-930,25.6,12.2,-5.7,25.6,1.3,-31.9,5.73,2.37,-28.5,29.9
2012-05-27 02:02:00,0.0,1.8963,0.0008,403.59,0.19,9.9,16.3,138.06,30.46,24.64,36.48,0.95,16.37,-27.30,-59,544,-930,25.6,11.9,-6.0,25.6,1.3,-31.9,5.73,2.37,-28.5,29.8
2012-05-27 02:03:00,0.0,1.8961,0.0009,403.62,0.15,13.1,18.5,138.06,30.46,24.65,36.48,0.95,16.46,-27.30,-59,544,-930,25.6,12.3,-5.6,25.6,1.3,-32.0,5.73,2.36,-28.5,29.8
2012-05-27 02:04:00,0.0,1.8959,0.0007,403.55,0.19,9.3,16.3,138.06,30.46,24.64,36.48,0.95,16.55,-27.29,-59,544,-930,25.6,11.9,-6.0,25.6,1.3,-31.9,5.73,2.37,-28.5,29.8
2012-05-27 02:05:00,0.0,1.8963,0.0009,403.61,0.20,10.2,18.8,138.06,30.46,24.65,36.48,0.95,16.62,-27.30,-60,544,-930,25.6,12.2,-5.7,25.6,1.3,-31.9,5.73,2.36,-28.5,29.8
2012-05-27 02:06:00,0.0,1.8961,0.0009,403.63,0.21,12.1,18.8,138.06,30.46,24.65,36.47,0.95,16.69,-27.30,-59,544,-930,25.6,11.6,-6.3,25.6,1.3,-32.0,5.73,2.36,-28.5,29.8
2012-05-27 02:07:00,0.0,1.8968,0.0009,403.57,0.16,6.1,11.6,138.06,30.46,24.64,36.48,0.93,16.76,-27.30,-59,544,-930,25.6,12.2,-5.7,25.6,1.3,-32.0,5.73,2.36,-28.5,29.8
2012-05-27 02:08:00,0.0,1.8963,0.0008,403.52,0.22,8.6,14.4,138.06,30.46,24.65,36.49,0.93,16.83,-27.29,-60,544,-930,25.6,11.9,-6.0,25.6,1.3,-31.9,5.73,2.36,-28.5,29.8
2012-05-27 02:09:00,0.0,1.8957,0.0009,403.47,0.18,8.6,13.4,138.06,30.46,24.65,36.48,0.92,16.89,-27.30,-59,544,-930,25.6,11.0,-7.1,25.6,1.3,-32.1,5.73,2.36,-28.5,29.8
2012-05-27 02:10:00,0.0,1.8963,0.0008,403.57,0.20,9.0,15.1,138.06,30.46,24.65,36.47,0.92,16.95,-27.30,-59,544,-930,25.6,11.8,-6.2,25.6,1.3,-32.0,5.73,2.38,-28.5,29.8
2012-05-27 02:11:00,0.0,1.8961,0.0009,403.55,0.21,8.6,15.7,138.06,30.46,24.65,36.48,0.91,17.01,-27.30,-59,544,-930,25.6,11.5,-6.5,25.6,1.3,-32.1,5.73,2.37,-28.5,29.8
2012-05-27 02:12:00,0.0,1.8959,0.0008,403.52,0.23,10.6,16.8,138.06,30.46,24.65,36.48,0.91,17.07,-27.29,-60,544,-930,25.6,11.7,-6.2,25.6,1.3,-32.1,5.73,2.38,-28.5,29.8
2012-05-27 02:13:00,0.0,1.8959,0.0008,403.65,0.22,7.3,11.3,138.06,30.46,24.65,36.47,0.94,17.12,-27.29,-60,544,-930,25.6,11.2,-6.8,25.6,1.3,-32.1,5.73,2.37,-28.5,29.8
2012-05-27 02:14:00,0.0,1.8958,0.0008,403.60,0.20,10.3,17.7,138.06,30.46,24.65,36.47,0.92,17.18,-27.29,-60,544,-930,25.6,11.3,-6.8,25.6,1.2,-32.2,5.73,2.37,-28.5,29.9
2012-05-27 02:15:00,0.0,1.8960,0.0008,403.60,0.22,9.6,14.4,138.06,30.46,24.65,36.48,0.93,17.22,-27.29,-59,544,-930,25.6,11.0,-7.0,25.6,1.2,-32.2,5.73,2.37,-28.5,29.9
2012-05-27 02:16:00,0.0,1.8960,0.0010,403.66,0.20,11.2,19.1,138.06,30.46,24.65,36.47,0.93,17.27,-27.29,-59,544,-930,25.6,12.0,-5.9,25.6,1.2,-32.2,5.73,2.36,-28.5,29.9
2012-05-27 02:17:00,0.0,1.8961,0.0008,403.61,0.18,11.2,14.8,138.06,30.46,24.65,36.48,0.94,17.32,-27.29,-60,544,-930,25.6,11.8,-6.1,25.6,1.2,-32.2,5.73,2.36,-28.5,29.9
2012-05-27 02:18:00,0.0,1.8963,0.0010,403.64,0.20,8.7,16.6,138.06,30.46,24.64,36.47,0.93,17.36,-27.29,-60,544,-930,25.6,10.8,-7.2,25.6,1.3,-32.1,5.73,2.36,-28.5,29.9
2012-05-27 02:19:00,0.0,1.8956,0.0008,403.58,0.21,8.9,14.5,138.06,30.46,24.65,36.47,0.93,17.40,-27.29,-60,544,-930,25.6,11.1,-6.9,25.6,1.3,-32.1,5.73,2.37,-28.5,29.9
2012-05-27 02:20:00,0.0,1.8957,0.0008,403.52,0.18,13.2,20.3,138.06,30.46,24.65,36.48,0.93,17.44,-27.29,-59,544,-930,25.7,11.0,-7.0,25.6,1.2,-32.2,5.73,2.36,-28.5,29.9